Back to catalog

SL-16 DEB

AliveLEO
NORAD 31796·DEBRIS·🇷🇺 Russia

Launched Jun 29, 2007 from Baikonur Cosmodrome

Loading…

Next Passes (next 24 hours)

TLE

FreshSource: Space-Track

Epoch: Sep 14, 2026, 06:23 UTC

1 31796U 07029E   26257.26649587  .00000153  00000-0  19296-3 0  9992
2 31796  71.0442 189.3754 0216348 249.2401 275.0103 13.68953888959627

Track SL-16 DEB in real time with AllMySat

Download on the App Store